Tracking 22081 objects as of 5-Dec-2020
HD Live streaming from Space Station
objects crossing your sky now

SL-8 R/B

Track SL-8 R/B now!
10-day predictions


NORAD ID: 35637
Int'l Code: 2009-039C
Perigee: 920.0 km
Apogee: 942.2 km
Inclination: 83.0 °
Period: 103.5 minutes
Semi major axis: 7302 km
RCS: 4.539 m2 (large)
Launch date: July 21, 2009
Source: Commonwealth of Independent States (former USSR) (CIS)
Launch site: PLESETSK MISSILE AND SPACE COMPLEX (PKMTR)

Note: This is a ROCKET BODY
aabbcc
Your satellite tracking list
Your tracking list is empty




NASA's NSSDC Master Catalog

Two Line Element Set (TLE):
1 35637U 09039C   20339.10540041  .00000092  00000-0  60481-4 0  9991
2 35637  82.9541 110.1342 0015188 227.8023 305.6741 13.91327620375425
Source of the keplerian elements: AFSPC